Radiation Dose at Monitoring Post of Fukushima Daini Nuclear Power Station
Date,Time,MP-1(microSv/h),MP-2(microSv/h),MP-3(microSv/h),MP-4(microSv/h),MP-5(microSv/h),MP-6(microSv/h),MP-7(microSv/h),Wind Direction,Wind Velocity(m/s),Rain
2014/05/18,00:00,0.7,0.5,0.8,0.7,0.7,0.3,0.3,north-northwest,1.4,No
2014/05/18,00:10,0.7,0.5,0.8,0.7,0.7,0.3,0.3,north-northwest,1.8,No
2014/05/18,00:20,0.7,0.5,0.8,0.7,0.7,0.3,0.3,west-northwest,2.5,No
2014/05/18,00:30,0.7,0.5,0.8,0.7,0.6,0.3,0.3,north-northwest,1.6,No
2014/05/18,00:40,0.7,0.5,0.8,0.7,0.7,0.3,0.3,west-northwest,0.7,No
2014/05/18,00:50,0.7,0.5,0.8,0.7,0.6,0.3,0.3,southeast,0.6,No
2014/05/18,01:00,0.7,0.5,0.8,0.7,0.7,0.3,0.3,south-southeast,1.1,No
2014/05/18,01:10,0.7,0.5,0.8,0.7,0.6,0.3,0.3,west-southwest,1.0,No
2014/05/18,01:20,0.7,0.5,0.8,0.7,0.6,0.3,0.3,west-northwest,2.2,No
2014/05/18,01:30,0.7,0.5,0.8,0.7,0.7,0.3,0.3,west,3.7,No
2014/05/18,01:40,0.7,0.5,0.8,0.7,0.6,0.3,0.3,west,4.1,No
2014/05/18,01:50,0.7,0.5,0.8,0.7,0.7,0.3,0.3,west-northwest,1.9,No
2014/05/18,02:00,0.7,0.5,0.8,0.7,0.7,0.3,0.3,west-northwest,1.0,No
2014/05/18,02:10,0.7,0.5,0.8,0.7,0.7,0.3,0.3,northwest,1.3,No
2014/05/18,02:20,0.7,0.5,0.8,0.7,0.6,0.3,0.3,northwest,2.3,No
2014/05/18,02:30,0.7,0.5,0.8,0.7,0.6,0.3,0.3,north-northeast,1.4,No
2014/05/18,02:40,0.7,0.5,0.8,0.7,0.7,0.3,0.3,north,0.6,No
2014/05/18,02:50,0.7,0.5,0.8,0.7,0.6,0.3,0.3,north,1.7,No
2014/05/18,03:00,0.7,0.5,0.8,0.7,0.6,0.3,0.3,north,1.9,No
2014/05/18,03:10,0.7,0.5,0.8,0.7,0.7,0.3,0.3,-,CALM,No
2014/05/18,03:20,0.7,0.5,0.8,0.7,0.7,0.3,0.3,east,0.6,No
2014/05/18,03:30,0.7,0.5,0.8,0.7,0.6,0.3,0.3,-,CALM,No
2014/05/18,03:40,0.7,0.5,0.8,0.7,0.6,0.3,0.3,-,CALM,No
2014/05/18,03:50,0.7,0.5,0.8,0.7,0.6,0.3,0.3,north-northwest,1.0,No
2014/05/18,04:00,0.7,0.5,0.8,0.7,0.7,0.3,0.3,northwest,0.9,No
2014/05/18,04:10,0.7,0.5,0.8,0.7,0.7,0.3,0.3,northwest,1.0,No
2014/05/18,04:20,0.7,0.5,0.8,0.7,0.6,0.3,0.3,west-northwest,1.0,No
2014/05/18,04:30,0.7,0.5,0.8,0.7,0.7,0.3,0.3,west-northwest,0.8,No
2014/05/18,04:40,0.7,0.5,0.8,0.7,0.6,0.3,0.3,east,0.7,No
2014/05/18,04:50,0.7,0.5,0.8,0.7,0.7,0.3,0.3,west-southwest,1.2,No
2014/05/18,05:00,0.7,0.5,0.8,0.7,0.6,0.3,0.3,west,0.7,No
2014/05/18,05:10,0.7,0.5,0.8,0.7,0.6,0.3,0.3,southwest,1.3,No
2014/05/18,05:20,0.7,0.5,0.8,0.7,0.6,0.3,0.3,southwest,1.7,No
2014/05/18,05:30,0.7,0.5,0.8,0.7,0.6,0.3,0.3,southwest,2.8,No
2014/05/18,05:40,0.7,0.5,0.8,0.7,0.7,0.3,0.3,west-southwest,3.6,No
2014/05/18,05:50,0.7,0.5,0.8,0.7,0.6,0.3,0.3,west,4.7,No
2014/05/18,06:00,0.7,0.5,0.8,0.7,0.7,0.3,0.3,west,5.4,No
2014/05/18,06:10,0.7,0.5,0.8,0.7,0.6,0.3,0.3,west,5.3,No
2014/05/18,06:20,0.7,0.5,0.8,0.7,0.7,0.3,0.3,west,5.4,No
2014/05/18,06:30,0.7,0.5,0.8,0.7,0.7,0.3,0.3,west,5.1,No
2014/05/18,06:40,0.7,0.5,0.8,0.7,0.7,0.3,0.3,west,7.4,No
2014/05/18,06:50,0.7,0.5,0.8,0.7,0.6,0.3,0.3,west,7.0,No
2014/05/18,07:00,0.7,0.5,0.8,0.7,0.7,0.3,0.3,west,6.4,No
2014/05/18,07:10,0.7,0.5,0.8,0.7,0.7,0.3,0.3,west,5.2,No
2014/05/18,07:20,0.7,0.5,0.8,0.7,0.7,0.3,0.3,west,3.5,No
2014/05/18,07:30,0.7,0.5,0.8,0.7,0.7,0.3,0.3,west-northwest,2.8,No
2014/05/18,07:40,0.7,0.5,0.8,0.7,0.7,0.3,0.3,west,4.1,No
2014/05/18,07:50,0.7,0.5,0.8,0.7,0.7,0.3,0.3,west,4.2,No
2014/05/18,08:00,0.7,0.5,0.8,0.7,0.7,0.3,0.3,west,7.4,No
2014/05/18,08:10,0.7,0.5,0.8,0.7,0.7,0.3,0.3,west,6.0,No
2014/05/18,08:20,0.7,0.5,0.8,0.7,0.7,0.3,0.3,west,6.4,No
2014/05/18,08:30,0.7,0.5,0.8,0.7,0.7,0.3,0.3,west,8.7,No
2014/05/18,08:40,0.7,0.5,0.8,0.7,0.7,0.3,0.3,west-southwest,9.2,No
2014/05/18,08:50,0.7,0.5,0.8,0.7,0.7,0.3,0.3,west-southwest,7.8,No
2014/05/18,09:00,0.7,0.5,0.8,0.7,0.7,0.3,0.3,west,9.2,No
2014/05/18,09:10,0.7,0.5,0.8,0.7,0.7,0.3,0.3,west,7.9,No
2014/05/18,09:20,0.7,0.5,0.8,0.7,0.7,0.3,0.3,west,9.4,No
2014/05/18,09:30,0.7,0.5,0.8,0.7,0.7,0.3,0.3,west,10.4,No
2014/05/18,09:40,0.7,0.5,0.8,0.7,0.7,0.3,0.3,west,10.1,No
2014/05/18,09:50,0.7,0.5,0.8,0.7,0.7,0.3,0.3,west,10.4,No
2014/05/18,10:00,0.7,0.5,0.8,0.7,0.7,0.3,0.3,west,9.9,No
2014/05/18,10:10,0.7,0.5,0.8,0.7,0.7,0.3,0.3,west-southwest,9.5,No
2014/05/18,10:20,0.7,0.5,0.8,0.7,0.7,0.3,0.3,west,9.6,No
2014/05/18,10:30,0.7,0.5,0.8,0.7,0.7,0.3,0.3,west-southwest,11.5,No
2014/05/18,10:40,0.7,0.5,0.8,0.7,0.7,0.3,0.3,west-southwest,8.9,No
2014/05/18,10:50,0.7,0.5,0.8,0.7,0.7,0.3,0.3,west,7.2,No
2014/05/18,11:00,0.7,0.5,0.8,0.7,0.7,0.3,0.3,west,7.2,No
2014/05/18,11:10,0.7,0.5,0.8,0.7,0.7,0.3,0.3,west-northwest,7.7,No
2014/05/18,11:20,0.7,0.5,0.8,0.7,0.7,0.3,0.3,west-northwest,5.6,No
2014/05/18,11:30,0.7,0.5,0.8,0.7,0.7,0.3,0.3,west-northwest,5.8,No
2014/05/18,11:40,0.7,0.5,0.8,0.7,0.7,0.3,0.3,northwest,3.7,No
2014/05/18,11:50,0.7,0.5,0.8,0.7,0.7,0.3,0.3,west,5.7,No
2014/05/18,12:00,0.7,0.5,0.8,0.7,0.7,0.3,0.3,west-southwest,6.0,No
2014/05/18,12:10,0.7,0.5,0.8,0.7,0.7,0.3,0.3,west,4.1,No
2014/05/18,12:20,0.7,0.5,0.8,0.7,0.7,0.3,0.3,west-southwest,8.1,No
2014/05/18,12:30,0.7,0.5,0.8,0.7,0.7,0.3,0.3,west,6.9,No
2014/05/18,12:40,0.7,0.5,0.8,0.7,0.7,0.3,0.3,west-southwest,5.9,No
2014/05/18,12:50,0.7,0.5,0.8,0.7,0.7,0.3,0.3,west-southwest,7.0,No
2014/05/18,13:00,0.7,0.5,0.8,0.7,0.7,0.3,0.3,west,4.5,No
2014/05/18,13:10,0.7,0.5,0.8,0.7,0.7,0.3,0.3,east-northeast,2.8,No
2014/05/18,13:20,0.7,0.5,0.8,0.7,0.7,0.3,0.3,south-southeast,2.5,No
2014/05/18,13:30,0.7,0.5,0.8,0.7,0.7,0.3,0.3,northeast,3.6,No
2014/05/18,13:40,0.7,0.5,0.8,0.7,0.7,0.3,0.3,east,3.3,No
2014/05/18,13:50,0.7,0.5,0.8,0.7,0.7,0.3,0.3,east,2.5,No
2014/05/18,14:00,0.7,0.5,0.8,0.7,0.7,0.3,0.3,east-southeast,4.3,No
2014/05/18,14:10,0.7,0.5,0.8,0.7,0.7,0.3,0.3,east-southeast,4.2,No
2014/05/18,14:20,0.7,0.5,0.8,0.7,0.7,0.3,0.3,east-southeast,4.8,No
2014/05/18,14:30,0.7,0.5,0.8,0.7,0.7,0.3,0.3,east-southeast,3.9,No
2014/05/18,14:40,0.7,0.5,0.8,0.7,0.7,0.3,0.3,southeast,2.3,No
2014/05/18,14:50,0.7,0.5,0.8,0.7,0.7,0.3,0.3,southeast,4.4,No
2014/05/18,15:00,0.7,0.5,0.8,0.7,0.7,0.3,0.3,southeast,4.0,No
2014/05/18,15:10,0.7,0.5,0.8,0.7,0.7,0.3,0.3,southeast,3.8,No
2014/05/18,15:20,0.7,0.5,0.8,0.7,0.7,0.3,0.3,south-southeast,4.0,No
2014/05/18,15:30,0.7,0.5,0.8,0.7,0.7,0.3,0.3,southeast,3.8,No
2014/05/18,15:40,0.7,0.5,0.8,0.7,0.7,0.3,0.3,southeast,4.0,No
2014/05/18,15:50,0.7,0.5,0.8,0.7,0.7,0.3,0.3,south-southeast,4.7,No
2014/05/18,16:00,0.7,0.5,0.8,0.7,0.7,0.3,0.3,south-southeast,4.3,No
2014/05/18,16:10,0.7,0.5,0.8,0.7,0.7,0.3,0.3,south,6.1,No
2014/05/18,16:20,0.7,0.5,0.8,0.7,0.7,0.3,0.3,south,6.4,No
2014/05/18,16:30,0.7,0.5,0.8,0.7,0.7,0.3,0.3,south,6.5,No
2014/05/18,16:40,0.7,0.5,0.8,0.7,0.7,0.3,0.3,south,5.3,No
2014/05/18,16:50,0.7,0.5,0.8,0.7,0.7,0.3,0.3,south,4.8,No
2014/05/18,17:00,0.7,0.5,0.8,0.7,0.7,0.3,0.3,south,5.3,No
2014/05/18,17:10,0.7,0.5,0.8,0.7,0.7,0.3,0.3,south,4.5,No
2014/05/18,17:20,0.7,0.5,0.8,0.7,0.7,0.3,0.3,south-southwest,3.3,No
2014/05/18,17:30,0.7,0.5,0.8,0.7,0.7,0.3,0.3,south,2.2,No
2014/05/18,17:40,0.7,0.5,0.8,0.7,0.7,0.3,0.3,south-southwest,3.8,No
2014/05/18,17:50,0.7,0.5,0.8,0.7,0.7,0.3,0.3,south-southwest,4.5,No
2014/05/18,18:00,0.7,0.5,0.8,0.7,0.7,0.3,0.3,south-southwest,5.1,No
2014/05/18,18:10,0.7,0.5,0.8,0.7,0.7,0.3,0.3,south-southwest,1.9,No
2014/05/18,18:20,0.7,0.5,0.8,0.7,0.7,0.3,0.3,southwest,1.9,No
2014/05/18,18:30,0.7,0.5,0.8,0.7,0.7,0.3,0.3,southwest,1.4,No
2014/05/18,18:40,0.7,0.5,0.8,0.7,0.7,0.3,0.3,southwest,1.8,No
2014/05/18,18:50,0.7,0.5,0.8,0.7,0.7,0.3,0.3,west,1.4,No
2014/05/18,19:00,0.7,0.5,0.8,0.7,0.7,0.3,0.3,northwest,2.2,No
2014/05/18,19:10,0.7,0.5,0.8,0.7,0.7,0.3,0.3,northwest,1.6,No
2014/05/18,19:20,0.7,0.5,0.8,0.7,0.7,0.3,0.3,northwest,1.2,No
2014/05/18,19:30,0.7,0.5,0.8,0.7,0.6,0.3,0.3,north-northwest,1.2,No
2014/05/18,19:40,0.7,0.5,0.8,0.7,0.7,0.3,0.3,north-northwest,2.3,No
2014/05/18,19:50,0.7,0.5,0.8,0.7,0.6,0.3,0.3,north,3.6,No
2014/05/18,20:00,0.7,0.5,0.8,0.7,0.7,0.3,0.3,north-northeast,5.6,No
2014/05/18,20:10,0.7,0.5,0.8,0.7,0.6,0.3,0.3,north-northeast,5.4,No
2014/05/18,20:20,0.7,0.5,0.8,0.7,0.6,0.3,0.3,north-northeast,4.8,No
2014/05/18,20:30,0.7,0.5,0.8,0.7,0.6,0.3,0.3,north,3.6,No
2014/05/18,20:40,0.7,0.5,0.8,0.7,0.6,0.3,0.3,north-northeast,3.9,No
2014/05/18,20:50,0.7,0.5,0.8,0.7,0.6,0.3,0.3,north,2.5,No
2014/05/18,21:00,0.7,0.5,0.8,0.7,0.6,0.3,0.3,north-northeast,1.4,No
2014/05/18,21:10,0.7,0.5,0.8,0.7,0.6,0.3,0.3,north,1.2,No
2014/05/18,21:20,0.7,0.5,0.8,0.7,0.6,0.3,0.3,north-northwest,0.9,No
2014/05/18,21:30,0.7,0.5,0.8,0.7,0.6,0.3,0.3,north-northeast,0.7,No
2014/05/18,21:40,0.7,0.5,0.8,0.7,0.6,0.3,0.3,west,2.2,No
2014/05/18,21:50,0.7,0.5,0.8,0.7,0.6,0.3,0.3,west-northwest,2.5,No
2014/05/18,22:00,0.7,0.5,0.8,0.7,0.7,0.3,0.3,northwest,3.2,No
2014/05/18,22:10,0.7,0.5,0.8,0.7,0.6,0.3,0.3,northwest,4.7,No
2014/05/18,22:20,0.7,0.5,0.8,0.7,0.6,0.3,0.3,northwest,4.2,No
2014/05/18,22:30,0.7,0.5,0.8,0.7,0.6,0.3,0.3,north-northwest,3.9,No
2014/05/18,22:40,0.7,0.5,0.8,0.7,0.6,0.3,0.3,northwest,3.0,No
2014/05/18,22:50,0.7,0.5,0.8,0.7,0.7,0.3,0.3,northwest,4.4,No
2014/05/18,23:00,0.7,0.5,0.8,0.7,0.7,0.3,0.3,west-northwest,5.7,No
2014/05/18,23:10,0.7,0.5,0.8,0.7,0.7,0.3,0.3,northwest,5.2,No
2014/05/18,23:20,0.7,0.5,0.8,0.7,0.6,0.3,0.3,northwest,5.1,No
2014/05/18,23:30,0.7,0.5,0.8,0.7,0.7,0.3,0.3,west-northwest,5.0,No
2014/05/18,23:40,0.7,0.5,0.8,0.7,0.6,0.3,0.3,west-northwest,5.1,No
2014/05/18,23:50,0.7,0.5,0.8,0.7,0.6,0.3,0.3,west-northwest,6.0,No
